Wind_Speed
7 9 10 10 10 10 10 10 11 11 11 12 12 12 13 14 14 15 15 15 15 15 15 15 15 15 14 14 14 13 13 13 13 13 12 11 11 11 10 9 9 8 8
8 9 10 10 11 11 11 11 12 12 12 12 13 13 14 14 15 15 16 16 16 16 16 16 16 16 15 15 15 14 14 14 14 14 13 12 12 12 11 10 9 9 9
8 9 10 11 11 12 12 12 12 13 13 13 14 14 15 15 16 16 17 17 17 17 17 17 17 16 16 16 15 15 15 15 15 14 14 13 13 12 11 11 10 10 10
9 10 11 11 12 12 12 12 13 13 14 14 15 15 16 16 17 17 18 18 18 18 18 18 18 17 17 17 16 16 15 15 16 15 14 14 14 13 12 12 11 11 11
10 11 12 12 12 12 13 13 13 14 15 15 15 16 16 17 17 18 19 19 19 19 19 19 19 18 18 18 17 17 16 16 16 16 15 15 15 15 14 13 13 13 12
11 12 13 13 13 13 14 14 14 15 16 16 16 16 17 17 18 19 20 20 20 20 20 20 19 19 19 19 18 18 17 17 17 17 17 16 16 16 15 14 14 14 14
13 13 13 14 14 14 14 15 15 16 16 17 17 17 17 18 18 19 20 20 20 20 21 21 20 20 20 19 19 19 19 18 18 18 18 18 17 17 16 16 15 15 16
14 14 14 14 14 14 15 15 16 16 17 17 17 17 18 19 19 19 20 20 21 21 21 21 21 21 21 20 20 20 20 20 20 19 19 19 19 18 18 18 17 17 17
14 15 15 14 14 15 16 17 17 17 17 18 18 18 19 19 20 20 20 21 21 21 21 22 22 22 21 21 21 21 21 21 21 20 20 20 20 20 19 19 19 18 18
15 16 16 16 16 16 17 17 17 17 17 18 18 19 20 20 21 20 21 22 22 22 22 22 23 23 22 22 22 22 22 22 22 22 22 21 21 21 20 20 20 19 19
15 16 16 17 17 17 17 17 17 17 18 18 19 20 21 21 21 21 22 22 23 24 24 24 24 24 24 24 24 24 24 24 24 24 23 23 22 21 21 21 21 21 20
17 17 18 18 18 18 17 17 18 18 19 19 20 21 22 22 23 23 23 23 24 24 25 25 26 26 26 26 26 26 26 26 26 25 25 24 24 23 23 23 23 22 22
18 18 17 17 18 18 18 18 19 19 20 20 20 21 22 23 24 24 24 25 25 26 26 26 27 27 27 27 28 28 28 27 27 27 26 26 25 25 24 24 23 23 23
18 18 18 18 19 20 19 19 20 20 20 21 22 22 23 23 24 25 25 26 26 27 27 27 27 28 29 29 29 28 28 28 28 27 27 27 27 27 26 26 25 25 24
18 19 20 20 21 21 20 20 21 22 21 21 22 22 23 24 25 25 26 27 27 28 28 29 29 30 30 30 31 31 30 30 29 29 29 29 29 29 28 27 27 26 26
19 19 20 21 21 22 23 22 23 22 21 20 21 23 24 24 25 26 27 27 28 28 29 29 29 30 30 30 31 32 32 31 31 31 31 31 31 30 29 29 28 28 27
20 20 21 22 22 22 22 22 22 21 20 21 21 22 23 24 25 26 27 27 28 28 28 29 30 30 29 30 30 31 32 32 33 32 31 31 31 31 30 30 29 28 28
21 22 21 21 21 21 21 22 20 20 20 21 22 22 23 24 25 26 27 28 28 28 28 29 29 30 30 29 30 30 31 31 32 33 32 32 31 31 31 30 30 29 29
21 21 22 20 20 19 20 21 20 21 21 22 22 23 23 24 25 27 27 27 28 28 28 29 29 30 30 30 30 31 31 32 32 32 31 32 32 31 31 30 30 30 29
22 21 22 21 20 20 21 22 22 21 21 22 23 23 23 25 26 27 27 27 28 29 29 29 30 31 31 30 31 32 32 32 33 33 32 32 32 32 32 31 31 30 29
20 20 20 19 19 20 22 22 22 21 22 22 23 23 24 25 26 27 27 27 28 29 28 29 30 30 30 30 30 31 31 31 31 31 31 32 32 32 33 32 31 31 30
19 19 19 19 20 20 21 22 21 21 22 22 23 24 24 25 26 27 28 29 29 28 29 28 29 29 29 30 30 30 30 29 30 30 31 31 31 33 33 32 32 31 30
20 20 20 20 21 21 21 20 20 21 22 23 23 24 24 25 26 27 28 29 29 29 28 28 28 28 29 30 30 29 28 28 28 29 30 31 31 32 32 33 32 31 31
20 21 21 21 21 21 21 20 20 21 21 23 23 24 24 25 26 27 28 29 30 29 27 27 27 28 29 28 28 27 27 26 26 26 28 29 30 31 31 31 31 31 32
21 22 22 21 21 22 22 21 21 21 22 23 23 23 23 24 25 26 28 28 27 26 26 26 27 28 28 27 26 26 25 25 25 25 25 26 28 30 31 30 30 31 31
22 22 22 22 22 22 22 21 21 22 22 23 22 22 23 24 25 26 27 27 27 26 25 25 26 26 26 26 25 24 24 24 24 24 25 26 26 28 29 29 29 30 31
Wind_Direction
326 327 324 322 323 326 327 328 330 332 332 331 330 329 327 325 324 323 321 320 317 315 312 308 306 305 303 301 300 300 300 299 298 296 294 292 289 285 282 276 271 266 263
323 322 319 316 316 317 320 323 324 324 325 325 323 322 321 319 318 318 318 316 314 312 310 307 304 303 301 298 297 297 297 295 293 293 292 290 286 282 278 273 268 266 260
314 318 315 312 311 314 317 319 319 319 319 319 318 317 315 315 314 314 314 312 310 308 308 307 304 302 300 297 295 294 294 292 290 290 290 286 282 280 278 272 265 265 261
307 310 310 308 310 313 315 316 315 315 314 315 314 313 313 313 312 312 311 309 308 306 304 304 302 300 299 296 293 291 291 290 289 287 287 284 281 279 276 273 269 267 265
302 305 306 304 306 310 312 312 313 312 311 310 310 310 310 310 310 309 308 307 306 304 302 301 300 297 296 294 292 290 289 289 287 286 284 283 282 280 276 271 270 267 266
299 300 302 301 305 308 310 310 309 310 308 305 306 307 307 307 307 307 307 305 303 301 300 300 299 297 294 293 291 288 287 287 286 285 284 283 281 279 276 273 270 269 266
293 294 299 302 304 307 308 308 309 308 306 303 304 305 305 305 306 306 305 303 301 299 298 298 297 296 292 290 288 287 287 286 284 283 282 281 280 278 276 274 272 268 265
289 292 297 300 303 305 305 307 307 306 304 301 300 300 302 303 303 303 302 300 299 297 296 295 295 292 289 288 287 286 285 284 282 281 280 279 278 276 273 273 272 269 266
289 293 295 297 300 302 303 303 303 302 301 300 298 298 300 300 301 301 300 298 297 296 294 292 292 290 288 286 286 285 283 283 280 279 279 278 278 276 273 273 271 269 269
287 290 292 295 297 300 300 300 300 299 298 298 296 297 298 298 299 299 297 296 296 295 294 291 290 287 286 284 283 283 282 281 279 278 277 276 276 275 272 272 270 268 267
292 289 289 293 294 295 297 298 298 298 297 295 294 295 296 296 295 296 295 294 294 293 292 290 288 286 285 284 282 281 279 278 277 276 275 274 273 273 270 269 268 268 267
292 289 288 289 291 292 294 295 297 296 295 294 293 293 294 294 295 295 293 293 293 291 290 290 288 285 284 282 281 280 278 277 276 275 273 271 270 270 268 267 266 265 266
290 289 288 289 291 292 291 292 295 293 291 291 292 291 292 293 294 295 295 295 294 292 291 291 288 286 283 281 279 280 278 277 276 274 272 270 270 268 267 266 266 265 264
288 290 290 291 290 290 288 287 289 290 289 289 290 290 291 293 295 295 295 293 293 292 292 292 289 287 284 281 279 278 276 275 274 272 271 270 270 269 267 265 265 264 262
282 285 289 287 286 285 286 287 290 290 288 289 291 290 292 293 294 294 293 294 293 292 292 292 290 289 284 281 279 277 274 273 273 272 270 270 269 268 267 265 262 262 261
278 281 284 285 287 288 290 290 290 288 288 290 292 295 293 293 293 294 293 293 292 292 292 291 291 290 287 283 281 277 274 272 271 271 270 270 269 267 265 263 261 260 259
280 283 285 284 286 289 289 291 290 287 288 292 294 295 295 295 294 294 295 294 293 293 292 292 291 292 289 284 282 279 275 273 271 270 268 268 268 266 264 263 261 259 258
280 282 282 282 286 287 287 290 287 287 291 292 292 293 294 296 297 297 297 295 293 294 293 293 292 292 290 288 284 281 277 274 272 269 267 266 266 265 263 262 260 258 256
279 281 285 282 286 286 287 291 286 287 290 291 293 295 296 297 299 299 299 296 294 293 294 293 292 293 292 289 286 283 278 274 270 267 265 264 264 263 262 260 258 256 255
280 283 284 282 284 287 288 291 289 287 290 292 293 295 296 298 298 300 300 298 297 295 295 294 294 293 291 290 287 284 280 276 271 268 265 264 262 261 260 259 256 255 253
279 281 282 283 285 287 288 290 290 287 289 293 294 295 297 299 300 300 301 299 299 296 296 296 296 295 293 291 289 285 281 278 274 269 266 264 262 259 258 258 257 255 254
280 284 283 284 289 289 293 295 293 289 292 294 296 297 298 300 301 301 301 301 301 298 298 299 298 297 295 293 290 287 283 281 276 272 267 264 262 260 258 257 256 254 253
282 285 286 285 287 289 292 292 294 295 295 296 296 298 299 300 301 301 302 301 302 300 299 299 298 297 296 294 291 288 284 281 278 274 270 265 263 260 258 256 255 253 251
282 285 287 285 286 290 293 295 296 298 296 296 297 300 301 302 303 305 305 305 304 299 299 299 298 297 298 296 293 290 287 284 280 275 272 268 265 262 259 257 256 253 251
282 285 286 288 290 289 290 291 293 295 297 299 299 303 305 305 306 308 308 309 308 304 302 301 300 299 300 297 295 293 290 285 281 279 272 268 266 264 261 257 255 252 251
284 283 287 288 289 287 285 286 291 293 298 301 301 303 305 306 308 309 310 310 310 307 306 305 304 303 301 298 295 293 292 289 284 281 274 268 266 263 260 258 255 253 250
Height
5894 5894 5894 5893 5893 5892 5891 5890 5889 5889 5888 5888 5888 5887 5887 5887 5886 5885 5885 5884 5883 5882 5882 5881 5880 5879 5879 5878 5878 5877 5877 5876 5876 5875 5875 5875 5874 5874 5874 5874 5874 5874 5875
5894 5893 5893 5892 5892 5891 5890 5889 5888 5888 5887 5887 5886 5886 5885 5885 5884 5884 5883 5882 5881 5881 5880 5879 5878 5878 5877 5876 5876 5875 5875 5874 5874 5873 5873 5873 5872 5872 5872 5872 5872 5873 5873
5892 5892 5892 5891 5890 5890 5889 5888 5887 5887 5886 5885 5884 5884 5883 5883 5882 5881 5881 5880 5879 5878 5877 5877 5876 5875 5875 5874 5873 5873 5873 5872 5871 5871 5871 5870 5870 5870 5870 5870 5870 5870 5871
5890 5890 5890 5890 5889 5888 5888 5887 5886 5885 5884 5884 5883 5882 5881 5880 5880 5879 5878 5877 5877 5876 5875 5874 5873 5873 5872 5871 5871 5870 5870 5869 5869 5869 5868 5868 5868 5868 5868 5868 5868 5868 5868
5889 5888 5888 5888 5887 5886 5886 5885 5884 5883 5883 5882 5881 5880 5879 5878 5877 5876 5875 5874 5874 5873 5872 5871 5870 5869 5869 5868 5868 5867 5867 5866 5866 5866 5865 5865 5865 5865 5865 5865 5866 5866 5866
5887 5886 5886 5886 5885 5885 5884 5883 5882 5881 5880 5880 5879 5878 5877 5876 5875 5874 5872 5871 5870 5869 5868 5868 5867 5866 5865 5865 5864 5864 5864 5863 5863 5862 5862 5862 5862 5862 5862 5862 5862 5863 5863
5884 5884 5884 5884 5883 5882 5882 5881 5880 5879 5878 5877 5876 5875 5874 5873 5872 5871 5870 5868 5867 5866 5865 5864 5863 5863 5862 5861 5861 5860 5860 5860 5860 5859 5859 5859 5859 5859 5858 5859 5859 5859 5860
5882 5882 5882 5881 5881 5880 5879 5878 5878 5877 5876 5874 5874 5873 5872 5871 5869 5868 5867 5865 5864 5863 5862 5861 5860 5859 5858 5857 5857 5856 5856 5856 5856 5855 5855 5855 5855 5855 5855 5855 5855 5855 5856
5880 5879 5879 5879 5878 5877 5877 5876 5875 5874 5873 5872 5871 5870 5869 5868 5866 5865 5863 5862 5861 5859 5858 5857 5856 5855 5854 5853 5853 5852 5851 5851 5851 5851 5851 5851 5851 5850 5850 5851 5851 5852 5852
5877 5877 5876 5876 5875 5875 5874 5873 5872 5871 5870 5869 5868 5867 5866 5864 5863 5861 5860 5858 5857 5856 5854 5853 5852 5851 5850 5849 5848 5848 5847 5847 5846 5846 5846 5846 5846 5846 5846 5846 5847 5847 5848
5874 5874 5873 5873 5872 5872 5871 5870 5869 5868 5867 5866 5864 5863 5862 5860 5859 5857 5856 5854 5853 5851 5850 5849 5848 5847 5846 5845 5844 5843 5843 5842 5842 5841 5841 5841 5841 5841 5841 5842 5842 5843 5844
5871 5870 5870 5870 5869 5868 5867 5866 5865 5864 5863 5862 5860 5859 5858 5856 5855 5853 5851 5850 5848 5846 5845 5844 5843 5841 5840 5839 5839 5838 5837 5837 5836 5836 5836 5836 5836 5836 5836 5837 5837 5838 5839
5868 5867 5867 5866 5866 5865 5864 5863 5862 5860 5859 5858 5857 5855 5854 5852 5850 5849 5847 5845 5843 5842 5840 5839 5837 5836 5835 5833 5832 5832 5831 5831 5830 5830 5830 5830 5830 5831 5831 5831 5832 5832 5833
5864 5864 5863 5863 5862 5861 5860 5859 5857 5856 5855 5854 5853 5851 5849 5848 5846 5844 5842 5840 5839 5837 5835 5833 5832 5830 5828 5827 5826 5825 5825 5824 5824 5824 5824 5824 5824 5824 5825 5825 5826 5827 5828
5861 5860 5859 5859 5858 5857 5856 5855 5853 5852 5851 5849 5848 5846 5845 5843 5841 5839 5837 5835 5833 5831 5829 5827 5825 5823 5822 5820 5819 5818 5817 5817 5817 5817 5817 5817 5817 5818 5818 5819 5820 5820 5821
5857 5856 5855 5854 5854 5853 5852 5851 5849 5848 5846 5845 5843 5842 5840 5838 5836 5834 5832 5830 5827 5825 5822 5820 5818 5816 5814 5812 5811 5810 5810 5809 5809 5809 5810 5810 5810 5810 5811 5812 5813 5814 5814
5852 5852 5851 5850 5849 5848 5848 5846 5844 5843 5842 5840 5839 5837 5835 5833 5831 5829 5826 5824 5821 5818 5816 5813 5811 5809 5807 5805 5803 5802 5802 5801 5801 5801 5802 5802 5803 5803 5804 5805 5805 5807 5808
5848 5847 5846 5846 5844 5843 5842 5841 5840 5838 5837 5836 5834 5832 5830 5828 5825 5823 5820 5817 5814 5812 5809 5807 5804 5802 5799 5797 5795 5794 5793 5792 5792 5793 5793 5794 5795 5795 5796 5797 5798 5799 5800
5843 5842 5841 5840 5840 5838 5837 5837 5835 5833 5832 5830 5829 5827 5825 5822 5820 5817 5814 5811 5808 5805 5803 5800 5798 5795 5792 5789 5787 5786 5784 5783 5783 5784 5784 5785 5786 5787 5788 5789 5791 5792 5793
5838 5837 5837 5836 5835 5834 5833 5832 5830 5828 5827 5825 5823 5821 5819 5816 5814 5811 5808 5805 5802 5799 5796 5793 5790 5787 5784 5781 5779 5777 5775 5774 5774 5775 5775 5776 5777 5779 5780 5781 5783 5784 5786
5834 5833 5832 5831 5830 5829 5828 5826 5824 5823 5821 5820 5817 5815 5813 5810 5807 5804 5801 5798 5795 5792 5789 5786 5782 5779 5776 5773 5771 5769 5767 5766 5765 5766 5766 5767 5768 5770 5771 5773 5774 5776 5778
5829 5828 5827 5826 5825 5824 5822 5820 5818 5817 5815 5814 5812 5809 5807 5804 5801 5798 5795 5792 5788 5785 5782 5778 5775 5772 5769 5766 5763 5761 5759 5758 5757 5757 5757 5758 5759 5761 5762 5764 5766 5768 5770
5825 5823 5823 5821 5820 5818 5816 5814 5813 5812 5810 5808 5806 5803 5801 5798 5796 5792 5789 5785 5781 5777 5774 5771 5768 5765 5762 5758 5755 5753 5752 5750 5749 5749 5748 5749 5750 5751 5753 5755 5757 5759 5761
5820 5819 5818 5816 5814 5813 5811 5809 5808 5807 5805 5803 5801 5798 5795 5792 5790 5786 5782 5778 5774 5770 5767 5764 5761 5758 5755 5751 5748 5746 5744 5743 5742 5741 5741 5741 5741 5742 5744 5746 5748 5750 5752
5814 5814 5813 5811 5809 5808 5806 5805 5803 5802 5800 5798 5795 5792 5789 5786 5784 5780 5776 5773 5768 5764 5761 5757 5754 5751 5748 5744 5742 5739 5737 5735 5734 5733 5734 5733 5733 5733 5735 5736 5739 5741 5743
5809 5808 5807 5805 5804 5802 5801 5799 5798 5796 5794 5792 5789 5787 5784 5781 5778 5775 5771 5767 5763 5759 5755 5751 5748 5744 5741 5738 5735 5733 5731 5728 5726 5725 5725 5725 5725 5725 5726 5727 5730 5732 5734